DW3400 Frejlev DK current weather conditions

sailwx.info

Wind from 091 at 4 knots gusting 7

Air temperature 33.9° C
Dewpoint 19.1° C

Last reported at 2019-Jun-19 14:10 UTC.
Time now 2019-Jun-19 15:04 UTC

Location: N 54°42' E 011°46'.
View on Google Maps.

See reports from other nearby stations

  
Tides and Currents Weather Stations Pressure Air Temp Water Temp Dewpoint Dewpoint Depression Visibility Wind Speed Wind Dir Waves Ship Positions
date/time (UTC)wind fromknots sea level pressurealtimeterstation pressurevisibilityair tempwater tempwave heightnotes
2019-Jun-19 14:10 091 4 gusting 7 33.9
2019-Jun-19 14:00 132 3 gusting 6 33.9
2019-Jun-19 13:55 132 2 gusting 6 33.9
2019-Jun-19 13:50 159 3 gusting 6 33.9
2019-Jun-19 13:45 114 3 gusting 6 33.9
2019-Jun-19 13:40 132 2 gusting 6 33.9
2019-Jun-19 13:35 133 3 gusting 6 33.9
2019-Jun-19 13:25 139 2 gusting 8 33.9
2019-Jun-19 13:20 132 2 gusting 5 33.9
2019-Jun-19 13:15 094 2 gusting 6 33.3
2019-Jun-19 13:05 135 2 gusting 5 33.3
2019-Jun-19 13:00 180 2 gusting 6 33.3
2019-Jun-19 12:55 135 2 gusting 8 33.3
2019-Jun-19 12:50 178 4 gusting 8 33.3
2019-Jun-19 12:45 180 2 gusting 6 33.3
2019-Jun-19 12:40 180 2 gusting 5 33.3
2019-Jun-19 12:35 135 3 gusting 6 33.3
2019-Jun-19 12:30 180 2 gusting 6 33.3
2019-Jun-19 12:25 093 4 gusting 6 32.8
2019-Jun-19 12:15 175 3 gusting 8 32.8
2019-Jun-19 12:10 135 2 gusting 7 32.2
2019-Jun-19 12:00 178 3 gusting 6 31.7
2019-Jun-19 11:50 222 2 gusting 5 31.7
2019-Jun-19 11:45 177 2 gusting 6 32.2
2019-Jun-19 11:35 138 2 gusting 6 32.8
2019-Jun-19 11:20 135 2 gusting 6 32.2
2019-Jun-19 11:15 135 2 gusting 5 31.7
2019-Jun-19 11:10 176 2 gusting 4 31.7
2019-Jun-19 11:05 112 1 gusting 4 31.1
2019-Jun-19 11:00 138 2 gusting 5 31.1
2019-Jun-19 10:55 135 2 gusting 7 30.6
2019-Jun-19 10:50 139 2 gusting 6 30.0
2019-Jun-19 10:45 133 1 gusting 6 30.0
2019-Jun-19 10:40 095 3 gusting 6 30.0
2019-Jun-19 10:35 140 1 gusting 6 30.0
2019-Jun-19 10:30 135 2 gusting 6 30.0
2019-Jun-19 10:25 090 2 gusting 7 30.0
2019-Jun-19 10:15 087 4 gusting 6 30.6
2019-Jun-19 10:10 135 1 gusting 5 30.6
2019-Jun-19 10:05 090 2 gusting 4 31.1
2019-Jun-19 10:00 180 0 gusting 5 31.1
2019-Jun-19 09:55 131 2 gusting 5 31.1
2019-Jun-19 09:45 156 1 gusting 6 30.6
2019-Jun-19 09:40 175 2 gusting 5 30.6
2019-Jun-19 09:25 180 1 gusting 5 30.0
2019-Jun-19 09:10 177 1 gusting 5 29.4
2019-Jun-19 08:55 177 0 gusting 5 28.9
2019-Jun-19 08:50 135 1 gusting 5 28.9
2019-Jun-19 08:45 135 2 gusting 4 28.9
2019-Jun-19 08:40 138 1 gusting 5 28.3
2019-Jun-19 08:35 315 1 gusting 5 28.9
2019-Jun-19 08:30 180 1 gusting 6 28.3
2019-Jun-19 08:15 178 0 gusting 4 28.3
2019-Jun-19 08:10 180 1 gusting 5 28.3
2019-Jun-19 08:00 140 1 gusting 4 27.8
2019-Jun-19 07:55 135 1 gusting 4 27.2
2019-Jun-19 07:45 113 1 gusting 4 26.7
2019-Jun-19 07:40 176 0 gusting 4 26.7
2019-Jun-19 07:20 137 1 gusting 4 25.6
2019-Jun-19 07:05 135 0 gusting 2 25.6
2019-Jun-19 07:00 135 0 gusting 2 25.6
2019-Jun-19 06:55 177 0 gusting 2 25.6
2019-Jun-19 06:50 161 0 gusting 4 25.6
2019-Jun-19 06:45 135 1 gusting 4 25.6
2019-Jun-19 06:40 156 0 gusting 2 25.0
2019-Jun-19 06:35 156 0 gusting 2 25.0
2019-Jun-19 06:30 138 0 gusting 4 25.6
2019-Jun-19 06:25 222 1 gusting 2 25.0
2019-Jun-19 06:20 135 1 gusting 2 25.0
2019-Jun-19 06:15 180 0 gusting 2 24.4
2019-Jun-19 06:10 133 0 gusting 4 24.4
2019-Jun-19 06:05 135 0 gusting 4 23.9
2019-Jun-19 06:00 222 0 gusting 2 23.9
2019-Jun-19 05:55 180 0 gusting 1 23.9
2019-Jun-19 05:50 221 0 gusting 2 23.3
2019-Jun-19 05:25 135 0 gusting 5 22.2
2019-Jun-19 05:20 178 1 gusting 5 21.7
2019-Jun-19 05:10 180 0 gusting 2 21.7
2019-Jun-19 05:05 158 0 gusting 1 21.1
2019-Jun-19 05:00 138 0 gusting 1 21.1
2019-Jun-19 04:55 135 0 gusting 2 21.1
2019-Jun-19 04:45 180 0 gusting 4 20.6
2019-Jun-19 04:35 180 0 gusting 2 19.4
2019-Jun-19 04:25 135 18.9
2019-Jun-19 04:20 135 18.3
2019-Jun-19 04:10 135 18.3
2019-Jun-19 04:05 135 17.8
2019-Jun-19 04:00 135 17.8
2019-Jun-19 03:50 135 0 gusting 2 17.8
2019-Jun-19 03:45 090 17.8
2019-Jun-19 03:40 090 17.8
2019-Jun-19 03:30 090 17.8
2019-Jun-19 03:25 090 17.8
2019-Jun-19 03:20 135 17.8
2019-Jun-19 03:15 135 0 gusting 2 17.8
2019-Jun-19 03:10 135 1 gusting 2 17.8
2019-Jun-19 03:05 090 0 gusting 2 17.8
2019-Jun-19 02:50 135 0 gusting 0 18.3
2019-Jun-19 02:45 135 0 gusting 0 18.3
2019-Jun-19 02:40 135 0 gusting 0 18.3
2019-Jun-19 02:35 138 18.3
2019-Jun-19 02:30 135 18.3
2019-Jun-19 02:15 177 0 gusting 1 18.3
2019-Jun-19 02:05 135 0 gusting 1 18.3
2019-Jun-19 02:00 135 0 gusting 0 18.3
2019-Jun-19 01:55 090 18.3
2019-Jun-19 01:50 087 0 gusting 2 18.3
2019-Jun-19 01:45 090 0 gusting 2 18.3
2019-Jun-19 01:35 114 0 gusting 2 18.9
2019-Jun-19 01:25 095 0 gusting 0 18.9
2019-Jun-19 01:20 135 0 gusting 0 18.9
2019-Jun-19 01:05 135 0 gusting 1 19.4
2019-Jun-19 01:00 108 1 gusting 5 19.4
2019-Jun-19 00:55 045 2 gusting 5 19.4
2019-Jun-19 00:50 051 0 gusting 2 19.4
2019-Jun-19 00:40 090 0 gusting 0 19.4
2019-Jun-19 00:35 270 0 gusting 2 19.4
2019-Jun-19 00:30 318 0 gusting 0 20.0
2019-Jun-19 00:25 20.0
2019-Jun-19 00:20 050 0 gusting 6 20.0
2019-Jun-19 00:10 090 2 gusting 5 20.0
2019-Jun-19 00:05 090 2 gusting 5 20.0
2019-Jun-19 00:00 047 3 gusting 6 20.0
2019-Jun-18 23:55 069 4 gusting 6 20.0
2019-Jun-18 23:50 088 3 gusting 6 20.0
2019-Jun-18 23:35 043 20.0
2019-Jun-18 23:15 357 20.0
2019-Jun-18 23:10 090 20.0
2019-Jun-18 23:05 068 2 gusting 4 20.0
2019-Jun-18 22:50 20.0
2019-Jun-18 22:40 313 0 gusting 1 20.0
2019-Jun-18 22:35 313 0 gusting 0 20.0
2019-Jun-18 22:30 315 20.0
2019-Jun-18 22:25 355 0 gusting 2 20.0
2019-Jun-18 22:10 224 1 gusting 6 20.0
2019-Jun-18 22:05 090 0 gusting 1 20.0
2019-Jun-18 22:00 085 0 gusting 8 20.0
2019-Jun-18 21:55 090 2 gusting 6 20.0
2019-Jun-18 21:45 069 3 gusting 6 20.0
2019-Jun-18 21:15 093 20.0
2019-Jun-18 21:10 090 0 gusting 2 19.4
2019-Jun-18 21:05 270 1 gusting 2 20.0
2019-Jun-18 21:00 314 1 gusting 2 20.0
2019-Jun-18 20:55 315 0 gusting 1 20.0
2019-Jun-18 20:50 275 0 gusting 2 20.0
2019-Jun-18 20:40 315 1 gusting 5 20.6
2019-Jun-18 20:25 277 1 gusting 6 20.6
2019-Jun-18 20:20 315 0 gusting 4 21.1
2019-Jun-18 20:15 315 1 gusting 4 21.1
2019-Jun-18 20:10 315 0 gusting 2 21.7
2019-Jun-18 20:00 315 1 gusting 6 21.7
2019-Jun-18 19:55 315 3 gusting 7 21.7
2019-Jun-18 19:45 315 4 gusting 6 22.8
2019-Jun-18 19:40 293 2 gusting 8 22.8
2019-Jun-18 19:35 315 3 gusting 8 23.3
2019-Jun-18 19:30 226 1 gusting 5 22.8
2019-Jun-18 19:25 311 2 gusting 5 22.8
2019-Jun-18 19:20 236 1 gusting 6 22.8
2019-Jun-18 19:15 319 0 gusting 5 23.3
2019-Jun-18 19:05 135 0 gusting 1 24.4
2019-Jun-18 19:00 132 0 gusting 1 24.4
2019-Jun-18 18:55 090 24.4
2019-Jun-18 18:35 135 25.6
2019-Jun-18 18:30 135 0 gusting 1 26.1
2019-Jun-18 18:25 135 26.1
2019-Jun-18 18:15 090 26.7
2019-Jun-18 18:10 26.7
2019-Jun-18 18:05 090 0 gusting 2 27.2
2019-Jun-18 18:00 025 0 gusting 2 27.2
2019-Jun-18 17:55 135 27.8
2019-Jun-18 17:50 133 0 gusting 1 27.8
2019-Jun-18 17:45 135 28.3
2019-Jun-18 17:40 135 0 gusting 1 28.9
2019-Jun-18 17:35 090 0 gusting 1 29.4
2019-Jun-18 17:30 093 30.0
2019-Jun-18 17:25 110 0 gusting 2 30.6
2019-Jun-18 17:20 133 0 gusting 2 30.6
2019-Jun-18 17:15 090 0 gusting 2 30.6
2019-Jun-18 17:10 093 0 gusting 2 30.6
2019-Jun-18 17:05 135 0 gusting 0 31.7
2019-Jun-18 17:00 157 0 gusting 2 31.7
2019-Jun-18 16:55 092 32.2
2019-Jun-18 16:50 135 0 gusting 1 32.8
2019-Jun-18 16:45 093 32.8
2019-Jun-18 16:40 135 0 gusting 2 32.8
2019-Jun-18 16:30 132 0 gusting 2 32.8
2019-Jun-18 16:25 135 0 gusting 4 33.3
2019-Jun-18 16:20 090 0 gusting 5 33.3
2019-Jun-18 16:10 111 2 gusting 5 34.4
2019-Jun-18 16:05 180 0 gusting 2 34.4
2019-Jun-18 16:00 135 0 gusting 2 34.4
2019-Jun-18 15:55 099 0 gusting 4 34.4
2019-Jun-18 15:45 176 0 gusting 5 34.4
2019-Jun-18 15:40 135 2 gusting 4 34.4
2019-Jun-18 15:35 135 1 gusting 2 34.4
2019-Jun-18 15:30 124 1 gusting 5 33.9
2019-Jun-18 15:25 183 2 gusting 5 33.9
2019-Jun-18 15:20 090 1 gusting 5 34.4
2019-Jun-18 15:15 177 2 gusting 5 34.4
2019-Jun-18 15:10 137 2 gusting 6 34.4
2019-Jun-18 15:05 135 2 gusting 6 33.9
2019-Jun-18 15:00 134 1 gusting 5 33.9
2019-Jun-18 14:55 135 2 gusting 5 33.9
2019-Jun-18 14:50 177 1 gusting 5 33.9
2019-Jun-18 14:30 180 2 gusting 5 33.9
2019-Jun-18 14:20 135 2 gusting 5 33.9
2019-Jun-18 14:10 135 2 gusting 5 33.9
2019-Jun-18 14:00 135 2 gusting 5 33.9
2019-Jun-18 13:55 141 2 gusting 6 33.3
2019-Jun-18 13:45 135 2 gusting 6 33.3
2019-Jun-18 13:40 115 2 gusting 6 33.3
2019-Jun-18 13:35 135 2 gusting 5 33.3
2019-Jun-18 13:30 156 1 gusting 6 33.3
2019-Jun-18 13:25 178 1 gusting 5 32.8
2019-Jun-18 13:20 138 1 gusting 5 32.8
2019-Jun-18 13:05 180 1 gusting 6 32.8
2019-Jun-18 12:55 180 2 gusting 6 32.8
2019-Jun-18 12:45 222 2 gusting 6 32.8
2019-Jun-18 12:40 180 2 gusting 6 32.8
2019-Jun-18 12:35 176 2 gusting 5 32.2
2019-Jun-18 12:30 138 2 gusting 5 32.2
2019-Jun-18 12:20 140 1 gusting 6 32.2
2019-Jun-18 12:15 135 3 gusting 10 31.7
2019-Jun-18 12:10 183 2 gusting 6 31.7
2019-Jun-18 12:05 180 2 gusting 4 31.1
2019-Jun-18 12:00 135 1 gusting 6 31.1
2019-Jun-18 11:55 180 2 gusting 6 31.1
2019-Jun-18 11:50 180 2 gusting 6 31.1
2019-Jun-18 11:45 180 2 gusting 6 31.1
2019-Jun-18 11:40 177 2 gusting 6 31.1
2019-Jun-18 11:35 173 2 gusting 6 31.1
2019-Jun-18 11:20 177 2 gusting 6 31.1
2019-Jun-18 11:15 028 1 gusting 7 30.6
2019-Jun-18 11:00 156 1 gusting 5 30.0
2019-Jun-18 10:55 138 2 gusting 5 30.0
2019-Jun-18 10:50 135 1 gusting 4 29.4
2019-Jun-18 10:45 158 0 gusting 6 29.4
2019-Jun-18 10:40 219 2 gusting 6 29.4
2019-Jun-18 10:30 180 1 gusting 6 29.4
2019-Jun-18 10:20 096 2 gusting 5 28.9
2019-Jun-18 10:15 180 2 gusting 6 28.9
2019-Jun-18 10:05 202 2 gusting 6 28.3
2019-Jun-18 10:00 135 1 gusting 6 28.3
2019-Jun-18 09:55 180 2 gusting 6 28.3
2019-Jun-18 09:45 180 2 gusting 6 28.3
2019-Jun-18 09:40 177 2 gusting 6 28.3
2019-Jun-18 09:35 135 2 gusting 6 27.8
2019-Jun-18 09:25 177 2 gusting 6 27.8
2019-Jun-18 09:20 135 2 gusting 6 27.8
2019-Jun-18 09:15 173 2 gusting 6 27.2
2019-Jun-18 09:10 221 2 gusting 6 27.2
2019-Jun-18 09:05 158 2 gusting 6 26.7
2019-Jun-18 09:00 180 3 gusting 6 26.7
2019-Jun-18 08:55 135 2 gusting 6 26.7
2019-Jun-18 08:50 180 2 gusting 5 26.7
2019-Jun-18 08:45 138 2 gusting 7 26.1
2019-Jun-18 08:40 135 2 gusting 5 26.1
2019-Jun-18 08:35 138 2 gusting 5 26.1
2019-Jun-18 08:30 049 1 gusting 6 25.6
2019-Jun-18 08:25 138 2 gusting 6 25.6
2019-Jun-18 08:20 178 3 gusting 6 25.6
2019-Jun-18 08:15 135 2 gusting 6 25.6
2019-Jun-18 08:10 135 3 gusting 6 25.0
2019-Jun-18 08:05 135 2 gusting 5 24.4
2019-Jun-18 07:55 155 3 gusting 6 24.4
2019-Jun-18 07:50 176 4 gusting 7 24.4
2019-Jun-18 07:40 178 3 gusting 6 23.9
2019-Jun-18 07:35 141 4 gusting 8 23.9
2019-Jun-18 07:30 177 2 gusting 5 23.9
2019-Jun-18 07:20 135 3 gusting 8 23.3
2019-Jun-18 07:15 178 4 gusting 7 23.3
2019-Jun-18 07:10 221 2 gusting 8 23.3
2019-Jun-18 06:55 135 2 gusting 6 23.3
2019-Jun-18 06:50 137 4 gusting 6 22.8
2019-Jun-18 06:40 178 2 gusting 6 22.8
2019-Jun-18 06:35 221 2 gusting 7 22.2
2019-Jun-18 06:30 180 2 gusting 7 22.2
2019-Jun-18 06:25 137 3 gusting 7 22.2
2019-Jun-18 06:10 178 4 gusting 8 21.7
2019-Jun-18 05:55 135 4 gusting 8 20.6
2019-Jun-18 05:35 180 2 gusting 6 20.0
2019-Jun-18 05:30 138 3 gusting 6 20.0
2019-Jun-18 05:20 135 2 gusting 7 19.4
2019-Jun-18 05:15 179 2 gusting 7 18.9
2019-Jun-18 05:00 180 2 gusting 4 18.3
2019-Jun-18 04:50 179 1 gusting 5 18.3
2019-Jun-18 04:45 176 2 gusting 5 18.3
2019-Jun-18 04:40 156 1 gusting 5 17.8
2019-Jun-18 04:35 179 2 gusting 6 17.8
2019-Jun-18 04:25 135 1 gusting 4 17.2
2019-Jun-18 04:20 155 1 gusting 4 17.2
2019-Jun-18 04:15 135 1 gusting 5 17.2
2019-Jun-18 04:10 135 1 gusting 4 16.7
2019-Jun-18 04:05 180 1 gusting 2 16.7
2019-Jun-18 04:00 180 2 gusting 6 16.7
2019-Jun-18 03:55 132 2 gusting 5 16.7
2019-Jun-18 03:45 135 1 gusting 5 16.7
2019-Jun-18 03:40 159 1 gusting 2 16.1
2019-Jun-18 03:35 135 1 gusting 2 16.1
2019-Jun-18 03:30 138 0 gusting 2 16.1
2019-Jun-18 03:20 135 1 gusting 2 16.1
2019-Jun-18 03:15 135 0 gusting 2 16.1
2019-Jun-18 03:10 135 1 gusting 2 16.1
2019-Jun-18 03:05 135 0 gusting 2 16.1
2019-Jun-18 02:50 180 1 gusting 2 16.1
2019-Jun-18 02:45 138 1 gusting 2 16.1
2019-Jun-18 02:40 177 1 gusting 2 16.1
2019-Jun-18 02:35 137 1 gusting 2 16.1
2019-Jun-18 02:30 156 1 gusting 2 16.1
2019-Jun-18 02:25 180 1 gusting 4 16.1
2019-Jun-18 02:20 180 1 gusting 4 16.1
2019-Jun-18 02:15 138 0 gusting 4 16.1
2019-Jun-18 02:10 178 1 gusting 2 16.1
2019-Jun-18 02:05 158 1 gusting 2 16.1
2019-Jun-18 02:00 177 1 gusting 2 16.1
2019-Jun-18 01:55 201 1 gusting 4 16.1
2019-Jun-18 01:20 180 0 gusting 2 16.1
2019-Jun-18 01:15 156 0 gusting 2 16.1
2019-Jun-18 01:00 094 0 gusting 2 16.1
2019-Jun-18 00:55 135 0 gusting 2 16.1
2019-Jun-18 00:50 156 0 gusting 2 16.1
2019-Jun-18 00:40 159 0 gusting 2 16.1
2019-Jun-18 00:25 135 0 gusting 2 16.1
2019-Jun-18 00:20 138 0 gusting 2 16.1
2019-Jun-18 00:10 221 0 gusting 2 16.1
2019-Jun-18 00:05 135 0 gusting 1 16.1
2019-Jun-18 00:00 132 0 gusting 4 16.1
2019-Jun-17 23:50 135 0 gusting 1 16.1
2019-Jun-17 23:40 135 0 gusting 2 16.1
2019-Jun-17 23:25 180 0 gusting 2 16.1
2019-Jun-17 23:20 135 0 gusting 1 16.1
2019-Jun-17 23:15 135 0 gusting 1 16.1
2019-Jun-17 23:10 135 0 gusting 0 16.1
2019-Jun-17 23:05 135 0 gusting 1 16.1
2019-Jun-17 22:55 135 0 gusting 1 16.1
2019-Jun-17 22:50 135 0 gusting 2 16.1
2019-Jun-17 22:45 135 0 gusting 2 16.1
2019-Jun-17 22:30 091 0 gusting 1 16.1
2019-Jun-17 22:25 112 0 gusting 1 16.7
2019-Jun-17 22:20 132 0 gusting 1 16.7
2019-Jun-17 22:10 135 0 gusting 1 16.7
2019-Jun-17 22:05 135 0 gusting 0 16.7
2019-Jun-17 21:55 090 0 gusting 1 16.7
2019-Jun-17 21:45 135 0 gusting 1 16.7
2019-Jun-17 21:40 132 0 gusting 1 17.2
2019-Jun-17 21:35 092 0 gusting 0 17.2
2019-Jun-17 21:30 135 17.2
2019-Jun-17 21:25 135 17.2
2019-Jun-17 21:20 135 0 gusting 1 17.2
2019-Jun-17 21:15 090 17.8
2019-Jun-17 21:10 090 17.8
2019-Jun-17 21:05 090 17.8
2019-Jun-17 21:00 090 17.8
2019-Jun-17 20:50 045 18.3
2019-Jun-17 20:45 135 18.3
2019-Jun-17 20:40 135 0 gusting 0 18.3
2019-Jun-17 20:30 135 18.3
2019-Jun-17 20:20 135 0 gusting 0 18.9
2019-Jun-17 20:15 135 18.9
2019-Jun-17 20:05 135 0 gusting 1 19.4
2019-Jun-17 20:00 135 19.4
2019-Jun-17 19:55 093 20.0
2019-Jun-17 19:40 135 20.6
2019-Jun-17 19:35 135 0 gusting 0 20.6
2019-Jun-17 19:20 093 21.7
2019-Jun-17 19:15 135 21.7
2019-Jun-17 19:05 135 22.8
2019-Jun-17 18:50 177 22.8
2019-Jun-17 18:40 135 23.3
2019-Jun-17 18:35 135 23.3
2019-Jun-17 18:25 133 0 gusting 1 23.9